Current Version              Previous Version:    01  02  03  04  05  06  07  08  09  10  11  12  13  14  15  16  17  18  19  20  21  22  23  24  25  26  27  28  29  30  
   31  32  33  34  35  36  37  38  39  40  41  42  43  44  45  46  47  48  49  50  51  52  53  54  55  56  57  58  59  60  

[Printable]
436
ASUS44 KFWD 201910
RWRTX
NORTH TEXAS HOURLY WEATHER ROUNDUP
NATIONAL WEATHER SERVICE FORT WORTH TX
100 PM CST SAT DEC 20 2014

NOTE: "FAIR" INDICATES FEW OR NO CLOUDS BELOW 12,000 FEET WITH NO
SIGNIFICANT WEATHER AND/OR OBSTRUCTIONS TO VISIBILITY.

TXZ118-119-202000-
DALLAS/FORT WORTH METROPLEX

CITY           SKY/WX    TMP DP  RH WIND       PRES   REMARKS
DFW AIRPORT    DRIZZLE   46  43  89 NE5       30.22F FOG
DALLAS LOVE    CLOUDY    47  42  83 N5        30.23F
FTW MEACHAM    CLOUDY    47  43  86 CALM      30.22F FOG
DAL-EXECUTIVE  CLOUDY    48  43  82 CALM      30.21F HAZE
FTW-ALLIANCE   DRIZZLE   46  42  86 CALM      30.22F FOG
FTW-SPINKS     CLOUDY    46  43  87 CALM      30.24F FOG
ARLINGTON      CLOUDY    48  41  76 NW5       30.22F
GRAND PRAIRIE  CLOUDY    46  45  93 N3        30.28
ADDISON        CLOUDY    45  43  93 CALM      30.23F FOG
MESQUITE       CLOUDY    46  43  87 CALM      30.23F
LANCASTER      CLOUDY    47  42  82 CALM      30.23F
$$

TXZ091>094-102>105-117-120-121-131>134-202000-
NORTH CENTRAL TEXAS

CITY           SKY/WX    TMP DP  RH WIND       PRES   REMARKS
SHRMAN/DENISON CLOUDY    45  43  93 CALM      30.23F FOG
GAINESVILLE    CLOUDY    44  38  78 W5        30.24F
BOWIE          CLOUDY    42  40  91 S3        30.21F
BRIDGEPORT     DRIZZLE   45  42  90 S3        30.25F
DECATUR        CLOUDY    43  42  95 CALM      30.22F
DENTON         CLOUDY    45  41  86 CALM      30.22F
MCKINNEY       CLOUDY    45  42  89 CALM      30.23F
GREENVILLE     CLOUDY    46  45  93 CALM      30.23F FOG
ROCKWALL       CLOUDY    46  44  91 CALM      30.22F
TERRELL        CLOUDY    49  45  86 N5        30.22F
WAXAHACHIE     CLOUDY    47  46  93 N3        30.23F FOG
CLEBURNE       CLOUDY    46  45  93 NW5       30.23F
GRANBURY       CLOUDY    47  42  84 CALM      30.24F
$$

TXZ083>090-098>101-113>116-127>130-139>142-154-155-202000-
WESTERN NORTH TEXAS

CITY           SKY/WX    TMP DP  RH WIND       PRES   REMARKS
WICHITA FALLS  CLOUDY    45  40  82 S10       30.19F WCI  40
WF-KICKAPOO    CLOUDY    45  40  81 S6        30.21F
VERNON         CLOUDY    48  39  70 S8        30.18F
ABILENE        CLOUDY    48  39  71 S7        30.18F
ABILENE-DYESS  CLOUDY    48  37  66 S7        30.17F
BRECKENRIDGE   CLOUDY    48  40  71 CALM      30.20F
GRAHAM         CLOUDY    46  42  87 SE6       30.20F
MINERAL WELLS  CLOUDY    45  42  89 S7        30.21F
STEPHENVILLE   CLOUDY    46  40  80 CALM      30.24F
COMANCHE       CLOUDY    47  44  87 SE3       30.21F
BROWNWOOD      CLOUDY    50  41  71 S5        30.20F
COLEMAN        CLOUDY    49  43  82 SE5       30.19F
BRADY          PTSUNNY   52  39  62 E5        30.17F
$$

TXZ143>147-156>162-174-175-202000-
CENTRAL TEXAS

CITY           SKY/WX    TMP DP  RH WIND       PRES   REMARKS
WACO           CLOUDY    50  44  80 N7        30.23F
WACO-TSTC      CLOUDY    50  46  87 N5        30.23F FOG
WACO-MCGREGOR  CLOUDY    50  43  76 N8        30.23F
HILLSBORO      CLOUDY    49  44  81 CALM      30.22F
CORSICANA      CLOUDY    51  44  77 NE3       30.23F
MEXIA          CLOUDY    49  46  89 CALM      30.21F
HEARNE         CLOUDY    51  47  86 N6        30.22F
CAMERON        CLOUDY    51  47  86 N6        30.22F
TEMPLE         CLOUDY    52  41  66 NW9       30.20F
KILLEEN        CLOUDY    50  43  78 VRB5      30.21F
KILLEEN-SKYLRK CLOUDY    52  39  62 NW6       30.19F
FORT HOOD      CLOUDY    50  43  78 NW6       30.20F
GATESVILLE     CLOUDY    48  43  81 N6        30.24F
HAMILTON       CLOUDY    47  44  88 SE8       30.22F
$$

TXZ095>097-106>112-122>126-135>138-148>153-164>167-202000-
EAST TEXAS

CITY           SKY/WX    TMP DP  RH WIND       PRES   REMARKS
PARIS          CLOUDY    46  41  81 CALM      30.22F
SULPHUR SPRNGS CLOUDY    48  44  86 CALM      30.24F FOG
MOUNT PLEASANT CLOUDY    48  45  88 CALM      30.24F
MINEOLA        CLOUDY    48  46  93 CALM      30.23F FOG
TYLER          CLOUDY    51  44  77 E3        30.21F
LONGVIEW       CLOUDY    50  42  74 CALM      30.21F
MARSHALL       CLOUDY    48  44  85 CALM      30.24F
ATHENS         CLOUDY    48  45  87 CALM      30.21F
PALESTINE      CLOUDY    49  46  89 E5        30.23F
JACKSONVILLE   CLOUDY    47  45  92 CALM      30.23F
HENDERSON      CLOUDY    49  44  83 CALM      30.22F
NACOGDOCHES    CLOUDY    50  43  76 E5        30.22F
LUFKIN         PTSUNNY   55  45  68 E8        30.20F
$$

SUPPLEMENTAL OBSERVATIONS (CENTRAL)

CITY           SKY/WX    TMP DP  RH WIND       PRES   REMARKS
CADDO GRASSLND   N/A     46  41  81 S3          N/A
PAT MAYSE LAKE   N/A     46  41  81 CALM        N/A
GREENVILLE       N/A     46  45  93 NE2         N/A
CEDAR HILL       N/A     48  43  81 N3          N/A
PALESTINE        N/A     48  45  87 NE5         N/A
MCGREGOR         N/A     50  43  76 N6          N/A
TEMPLE           N/A     52  45  76 N1          N/A
$$

SUPPLEMENTAL OBSERVATIONS (WEST)

CITY           SKY/WX    TMP DP  RH WIND       PRES   REMARKS
MILLERS CREEK    N/A     48  45  87 S10         N/A
POSSUM KINGDOM   N/A     45  41  87 SE3         N/A
LBJ GRASSLAND    N/A     45  39  81 S5          N/A
GRANBURY         N/A     46  41  81 NW1         N/A
HAMBY            N/A     48  39  71 S7          N/A
IVIE RESERVOIR   N/A     52  39  62 E6          N/A
COLORADO BEND    N/A     48  39  71 W1          N/A
$$

SUPPLEMENTAL OBSERVATIONS (EAST)

CITY           SKY/WX    TMP DP  RH WIND       PRES   REMARKS
CLARKSVILLE      N/A     48  45  87 E3          N/A
TEXARKANA        N/A     52  41  66 N2          N/A
LINDEN           N/A     52  45  76 NE2         N/A
GILMER           N/A     54  43  66 SE5         N/A
HENDERSON        N/A     50  43  76 NE2         N/A
LUFKIN           N/A     52  45  76 MISG        N/A
N SABINE NF      N/A     50  45  81 MISG        N/A
S SABINE NF      N/A     52  45  76 N5          N/A
$$

SUPPLEMENTAL OBSERVATIONS ARE A COLLECTION OF AUTOMATED INSTRUMENTS
THAT ARE MAINTAINED BY A VARIETY OF FEDERAL AND STATE AGENCIES.
CERTAIN ELEMENTS...SUCH AS HUMIDITY VALUES AND SUSTAINED WIND
SPEEDS...MAY BE APPROXIMATED.